Algoma Mariner — CFN5517 — position and weather

sailwx.info

Track history (hours):
 
Tides and Currents Weather Stations Pressure Air Temp Water Temp Dewpoint Dewpoint Depression Visibility Wind Speed Wind Dir Waves Ship Positions

Algoma Mariner

Last reported at 2015-Jan-31 04:17 UTC. Time now 2015-Feb-01 19:47 UTC.
Position N 46°27' W 072°16'.

Length 225 m; draft 10.4 m.

Type: Cargo ship. MMSI: 316014050.

Date/timePositionNaut miles runAvg speedWind from/ knotsBaromVisibWave heightAir tempDewpointWater temp
2015-Jan-31 04:17N 46°27' W 072°16'1013.6
2015-Jan-31 03:33N 46°22' W 072°29'9 9.5
2015-Jan-31 02:33N 46°16' W 072°39'2 0.1
2015-Jan-30 03:33N 46°16' W 072°42'7 7.3
2015-Jan-30 02:33N 46°20' W 072°33'7 6.8
2015-Jan-30 01:33N 46°24' W 072°25'9 8.8
2015-Jan-30 00:33N 46°29' W 072°14'  
2015-Jan-23 15:33N 46°30' W 072°14'1313.5
2015-Jan-23 14:33N 46°22' W 072°29'1010.0
2015-Jan-23 13:34N 46°16' W 072°40'1110.7
2015-Jan-23 12:33N 46°11' W 072°54'3 0.2
2015-Jan-22 18:22N 46°12' W 072°50'7 8.7
2015-Jan-22 17:34N 46°16' W 072°41'6 6.2
2015-Jan-22 16:34N 46°19' W 072°33'8 7.9
2015-Jan-22 15:33N 46°24' W 072°24'9 8.9
2015-Jan-22 14:34N 46°29' W 072°14'9 9.1
2015-Jan-22 13:34N 46°34' W 072°03'  
Track history (hours):
 
Tides and Currents Weather Stations Pressure Air Temp Water Temp Dewpoint Dewpoint Depression Visibility Wind Speed Wind Dir Waves Ship Positions

Algoma Mariner

Last reported at 2015-Jan-31 04:17 UTC. Time now 2015-Feb-01 19:47 UTC.
Position N 46°27' W 072°16'.

Length 225 m; draft 10.4 m.

Type: Cargo ship. MMSI: 316014050.

Date/timePositionNaut miles runAvg speedWind from/ knotsBaromVisibWave heightAir tempDewpointWater temp
2015-Jan-31 04:17N 46°27' W 072°16'1013.6
2015-Jan-31 03:33N 46°22' W 072°29'9 9.5
2015-Jan-31 02:33N 46°16' W 072°39'2 0.1
2015-Jan-30 03:33N 46°16' W 072°42'7 7.3
2015-Jan-30 02:33N 46°20' W 072°33'7 6.8
2015-Jan-30 01:33N 46°24' W 072°25'9 8.8
2015-Jan-30 00:33N 46°29' W 072°14'  
2015-Jan-23 15:33N 46°30' W 072°14'1313.5
2015-Jan-23 14:33N 46°22' W 072°29'1010.0
2015-Jan-23 13:34N 46°16' W 072°40'1110.7
2015-Jan-23 12:33N 46°11' W 072°54'3 0.2
2015-Jan-22 18:22N 46°12' W 072°50'7 8.7
2015-Jan-22 17:34N 46°16' W 072°41'6 6.2
2015-Jan-22 16:34N 46°19' W 072°33'8 7.9
2015-Jan-22 15:33N 46°24' W 072°24'9 8.9
2015-Jan-22 14:34N 46°29' W 072°14'9 9.1
2015-Jan-22 13:34N 46°34' W 072°03'  

Dump ship's entire track history